| time (UTC) | temp F | wind direction | speed knots | gust knots | rain 1hr in | rain 24hr in | rain mn in | humidity % | barometer mb |
| 20260508134549 | 60 | 240 | 9.6 | 15.6 | 0.00 | 0.00 | 0.00 | 38 | 1005.1 |
| 20260508133049 | 57 | 240 | 10.4 | 14.8 | 0.00 | 0.00 | 0.00 | 42 | 1005.5 |
| 20260508131541 | 55 | 221 | 9.6 | 12.2 | 0.00 | 0.00 | 0.00 | 45 | 1005.5 |
| 20260508130037 | 51 | 232 | 9.6 | 13.9 | 0.00 | 0.00 | 0.00 | 49 | 1005.6 |
| 20260508124534 | 49 | 237 | 12.2 | 15.6 | 0.00 | 0.00 | 0.00 | 52 | 1005.4 |
| 20260508123034 | 48 | 220 | 9.6 | 13.0 | 0.00 | 0.00 | 0.00 | 52 | 1005.3 |
| 20260508121529 | 48 | 226 | 10.4 | 14.8 | 0.00 | 0.00 | 0.00 | 53 | 1005.3 |
| 20260508120028 | 46 | 214 | 11.3 | 15.6 | 0.00 | 0.00 | 0.00 | 54 | 1005.4 |
| 20260508114524 | 45 | 226 | 7.8 | 11.3 | 0.00 | 0.00 | 0.00 | 57 | 1005.4 |
| 20260508113021 | 47 | 210 | 10.4 | 14.8 | 0.00 | 0.00 | 0.00 | 52 | 1005.4 |
| 20260508111519 | 47 | 213 | 10.4 | 14.8 | 0.00 | 0.00 | 0.00 | 51 | 1005.4 |
| 20260508110017 | 47 | 219 | 10.4 | 13.9 | 0.00 | 0.00 | 0.00 | 48 | 1005.6 |
| 20260508104517 | 47 | 210 | 9.6 | 13.0 | 0.00 | 0.00 | 0.00 | 47 | 1005.8 |
| 20260508103019 | 48 | 217 | 10.4 | 13.0 | 0.00 | 0.00 | 0.00 | 47 | 1005.8 |
| 20260508101517 | 46 | 217 | 8.7 | 11.3 | 0.00 | 0.00 | 0.00 | 50 | 1005.9 |
| 20260508100022 | 46 | 231 | 7.8 | 12.2 | 0.00 | 0.00 | 0.00 | 50 | 1005.9 |
| 20260508094513 | 46 | 226 | 7.8 | 11.3 | 0.00 | 0.00 | 0.00 | 48 | 1005.8 |
| 20260508093013 | 47 | 224 | 9.6 | 12.2 | 0.00 | 0.00 | 0.00 | 45 | 1005.8 |
| 20260508091510 | 48 | 207 | 10.4 | 13.0 | 0.00 | 0.00 | 0.00 | 44 | 1005.9 |
| 20260508090008 | 47 | 214 | 9.6 | 11.3 | 0.00 | 0.00 | 0.00 | 48 | 1005.9 |
| 20260508084506 | 47 | 214 | 9.6 | 13.0 | 0.00 | 0.00 | 0.00 | 50 | 1005.9 |
| 20260508083002 | 46 | 219 | 9.6 | 12.2 | 0.00 | 0.00 | 0.00 | 51 | 1006.0 |
| 20260508081501 | 46 | 208 | 9.6 | 11.3 | 0.00 | 0.00 | 0.00 | 51 | 1006.0 |
| 20260508080111 | 45 | 212 | 7.8 | 11.3 | 0.00 | 0.00 | 0.00 | 52 | 1006.2 |
| 20260508074614 | 45 | 214 | 9.6 | 12.2 | 0.00 | 0.00 | 0.00 | 53 | 1006.3 |
| 20260508073059 | 44 | 207 | 8.7 | 11.3 | 0.00 | 0.00 | 0.00 | 53 | 1006.3 |
| 20260508071554 | 44 | 209 | 8.7 | 11.3 | 0.00 | 0.00 | 0.00 | 51 | 1006.5 |
| 20260508070055 | 44 | 224 | 7.8 | 10.4 | 0.00 | 0.00 | 0.00 | 52 | 1006.6 |
| 20260508064557 | 43 | 209 | 7.8 | 10.4 | 0.00 | 0.00 | 0.00 | 54 | 1006.7 |
| 20260508063053 | 43 | 217 | 7.8 | 9.6 | 0.00 | 0.00 | 0.00 | 54 | 1006.8 |
| 20260508061548 | 44 | 210 | 7.0 | 9.6 | 0.00 | 0.00 | 0.00 | 52 | 1006.9 |
| 20260508060046 | 43 | 203 | 7.0 | 9.6 | 0.00 | 0.00 | 0.00 | 53 | 1007.0 |
| 20260508054548 | 43 | 210 | 7.0 | 8.7 | 0.00 | 0.00 | 0.00 | 54 | 1007.0 |
| 20260508053052 | 43 | 214 | 7.0 | 9.6 | 0.00 | 0.00 | 0.00 | 54 | 1007.0 |
| 20260508051546 | 43 | 217 | 7.0 | 8.7 | 0.00 | 0.00 | 0.00 | 54 | 1007.1 |
| 20260508050139 | 42 | 217 | 6.1 | 7.8 | 0.00 | 0.00 | 0.00 | 56 | 1007.1 |
| 20260508044536 | 42 | 214 | 6.1 | 7.8 | 0.00 | 0.00 | 0.00 | 57 | 1007.3 |
| 20260508043035 | 41 | 226 | 5.2 | 7.0 | 0.00 | 0.00 | 0.00 | 63 | 1007.6 |
| 20260508041534 | 41 | 229 | 5.2 | 6.1 | 0.00 | 0.00 | 0.00 | 64 | 1007.6 |
| 20260508040048 | 41 | 229 | 5.2 | 6.1 | 0.00 | 0.00 | 0.00 | 63 | 1007.7 |
| 20260508034541 | 40 | 229 | 5.2 | 6.1 | 0.00 | 0.00 | 0.00 | 63 | 1007.7 |
| 20260508033033 | 41 | 236 | 5.2 | 6.1 | 0.00 | 0.00 | 0.00 | 59 | 1007.8 |
| 20260508031534 | 42 | 229 | 5.2 | 6.1 | 0.00 | 0.00 | 0.00 | 56 | 1007.8 |
| 20260508030033 | 42 | 231 | 5.2 | 6.1 | 0.00 | 0.00 | 0.00 | 55 | 1007.8 |
| 20260508024532 | 42 | 232 | 5.2 | 6.1 | 0.00 | 0.00 | 0.00 | 55 | 1007.8 |
| 20260508023033 | 43 | 228 | 5.2 | 6.1 | 0.00 | 0.00 | 0.00 | 54 | 1007.8 |
| 20260508021533 | 44 | 221 | 3.5 | 4.3 | 0.00 | 0.00 | 0.00 | 51 | 1007.6 |
| 20260508020030 | 44 | 241 | 2.6 | 4.3 | 0.00 | 0.00 | 0.00 | 47 | 1007.6 |
| 20260508014530 | 46 | 317 | 1.7 | 2.6 | 0.00 | 0.00 | 0.00 | 44 | 1007.5 |
| 20260508013032 | 50 | 317 | 0.0 | 0.9 | 0.00 | 0.00 | 0.00 | 40 | 1007.5 |
| 20260508011529 | 56 | 317 | 0.9 | 2.6 | 0.00 | 0.00 | 0.00 | 31 | 1007.4 |
| 20260508010031 | 57 | 341 | 0.9 | 3.5 | 0.00 | 0.00 | 0.00 | 31 | 1007.3 |
| 20260508004532 | 58 | 329 | 3.5 | 6.1 | 0.00 | 0.00 | 0.00 | 29 | 1007.3 |
| 20260508003027 | 59 | 322 | 7.0 | 8.7 | 0.00 | 0.00 | 0.00 | 27 | 1007.3 |
| 20260508001526 | 60 | 342 | 4.3 | 8.7 | 0.00 | 0.00 | 0.00 | 27 | 1007.3 |
| 20260508000029 | 60 | 297 | 7.0 | 10.4 | 0.00 | 0.00 | 0.00 | 26 | 1007.4 |
| 20260507234540 | 60 | 302 | 4.3 | 13.9 | 0.00 | 0.00 | 0.00 | 26 | 1007.4 |
| 20260507233027 | 60 | 336 | 3.5 | 11.3 | 0.00 | 0.00 | 0.00 | 27 | 1007.6 |
| 20260507231525 | 61 | 342 | 7.8 | 13.9 | 0.00 | 0.00 | 0.00 | 25 | 1007.6 |
| 20260507230023 | 60 | 238 | 4.3 | 13.9 | 0.00 | 0.00 | 0.00 | 25 | 1007.6 |
| 20260507224528 | 61 | 324 | 9.6 | 14.8 | 0.00 | 0.00 | 0.00 | 25 | 1007.6 |
| 20260507223021 | 61 | 325 | 8.7 | 15.6 | 0.00 | 0.00 | 0.00 | 25 | 1007.7 |
| 20260507221529 | 60 | 336 | 1.7 | 9.6 | 0.00 | 0.00 | 0.00 | 25 | 1007.9 |
| 20260507220021 | 61 | 311 | 7.0 | 15.6 | 0.00 | 0.00 | 0.00 | 26 | 1007.9 |
| 20260507214519 | 62 | 278 | 11.3 | 15.6 | 0.00 | 0.00 | 0.00 | 27 | 1007.9 |
| 20260507213023 | 61 | 329 | 6.1 | 12.2 | 0.00 | 0.00 | 0.00 | 26 | 1008.1 |
| 20260507211517 | 61 | 347 | 6.1 | 16.5 | 0.00 | 0.00 | 0.00 | 26 | 1008.3 |
| 20260507210021 | 61 | 305 | 10.4 | 14.8 | 0.00 | 0.00 | 0.00 | 27 | 1008.4 |
| 20260507204513 | 60 | 328 | 6.1 | 13.0 | 0.00 | 0.00 | 0.00 | 27 | 1008.5 |
| 20260507203012 | 61 | 311 | 10.4 | 16.5 | 0.00 | 0.00 | 0.00 | 26 | 1008.6 |
| 20260507201509 | 61 | 284 | 7.8 | 13.9 | 0.00 | 0.00 | 0.00 | 27 | 1008.8 |
| 20260507200011 | 60 | 298 | 7.8 | 18.2 | 0.00 | 0.00 | 0.00 | 28 | 1009.0 |
| 20260507194523 | 60 | 296 | 11.3 | 17.4 | 0.00 | 0.00 | 0.00 | 26 | 1008.9 |
| 20260507193007 | 60 | 325 | 10.4 | 18.2 | 0.00 | 0.00 | 0.00 | 26 | 1009.1 |
| 20260507191506 | 59 | 318 | 10.4 | 20.0 | 0.00 | 0.00 | 0.00 | 23 | 1009.2 |
| 20260507190011 | 59 | 309 | 7.0 | 16.5 | 0.00 | 0.00 | 0.00 | 26 | 1009.1 |
| 20260507184503 | 59 | 322 | 9.6 | 19.1 | 0.00 | 0.00 | 0.00 | 24 | 1009.2 |
| 20260507183002 | 59 | 252 | 7.8 | 13.9 | 0.00 | 0.00 | 0.00 | 26 | 1009.3 |
| 20260507181603 | 59 | 320 | 13.0 | 20.0 | 0.00 | 0.00 | 0.00 | 26 | 1009.5 |
| 20260507180103 | 59 | 310 | 8.7 | 13.9 | 0.00 | 0.00 | 0.00 | 27 | 1009.5 |
| 20260507174603 | 56 | 339 | 7.0 | 13.0 | 0.00 | 0.00 | 0.00 | 30 | 1009.6 |
| 20260507173100 | 57 | 347 | 8.7 | 23.5 | 0.00 | 0.00 | 0.00 | 35 | 1009.8 |
| 20260507171549 | 55 | 259 | 6.1 | 10.4 | 0.00 | 0.00 | 0.00 | 35 | 1010.1 |
| 20260507170047 | 55 | 288 | 5.2 | 10.4 | 0.00 | 0.00 | 0.00 | 36 | 1010.3 |
| 20260507164600 | 54 | 341 | 1.7 | 6.1 | 0.00 | 0.00 | 0.00 | 39 | 1010.3 |
| 20260507163038 | 53 | 347 | 6.1 | 14.8 | 0.00 | 0.00 | 0.00 | 38 | 1010.5 |
| 20260507161548 | 52 | 60 | 0.9 | 9.6 | 0.00 | 0.00 | 0.00 | 41 | 1010.6 |
| 20260507160032 | 51 | 329 | 0.0 | 5.2 | 0.00 | 0.00 | 0.00 | 43 | 1010.6 |
| 20260507154526 | 51 | 305 | 3.5 | 7.8 | 0.00 | 0.00 | 0.00 | 42 | 1010.7 |
| 20260507153026 | 50 | 39 | 1.7 | 4.3 | 0.00 | 0.00 | 0.00 | 44 | 1010.7 |
| 20260507151517 | 49 | 2 | 2.6 | 6.1 | 0.00 | 0.00 | 0.00 | 46 | 1010.6 |
| 20260507150014 | 49 | 7 | 0.0 | 5.2 | 0.00 | 0.00 | 0.00 | 48 | 1010.7 |
| 20260507144509 | 47 | 82 | 2.6 | 6.1 | 0.00 | 0.00 | 0.00 | 53 | 1010.7 |
| 20260507143006 | 47 | 111 | 1.7 | 5.2 | 0.00 | 0.00 | 0.00 | 54 | 1010.8 |
| 20260507141604 | 46 | 118 | 1.7 | 5.2 | 0.00 | 0.00 | 0.00 | 55 | 1010.8 |
| 20260507140055 | 45 | 87 | 0.9 | 5.2 | 0.00 | 0.00 | 0.00 | 56 | 1011.0 |